This demonstration page uses our WeatherBlox Daily Observations layout. Learn more.

Left ArrowRight Arrow

Hourly Observations for January 30, 2015

Temp ( °F °C ) Dew Point ( °F °C ) Humidity (%) Winds ( mph kmh ) Pressure ( in mb ) Visibility ( mi km ) Precip ( " mm )
12:15 am 00:15 Clear 21 -6 12 -11 68 68 Calm 30.65 1038 10 16 0.00 0.00
12:35 am 00:35 Clear 21 -6 16 -9 80 80 Calm 30.65 1038 10 16 0.00 0.00
12:55 am 00:55 Clear 21 -6 16 -9 80 80 Calm 30.65 1038 10 16 0.00 0.00
1:15 am 01:15 Clear 19 -7 12 -11 73 73 Calm 30.65 1038 10 16 0.00 0.00
1:35 am 01:35 Clear 21 -6 18 -8 86 86 S 3 6 30.65 1038 10 16 0.00 0.00
1:55 am 01:55 Clear 21 -6 18 -8 86 86 Calm 30.62 1037 10 16 0.00 0.00
2:15 am 02:15 Clear 18 -8 10 -12 73 73 Calm 30.65 1038 10 16 0.00 0.00
2:35 am 02:35 Clear 16 -9 10 -12 79 79 E 5 7 30.65 1038 10 16 0.00 0.00
2:55 am 02:55 Clear 18 -8 12 -11 79 79 E 3 6 30.65 1038 10 16 0.00 0.00
3:15 am 03:15 Clear 18 -8 12 -11 79 79 E 3 6 30.65 1038 10 16 0.00 0.00
3:35 am 03:35 Clear 18 -8 14 -10 86 86 ESE 6 9 30.62 1037 10 16 0.00 0.00
3:55 am 03:55 Clear 19 -7 16 -9 86 86 SE 7 11 30.59 1036 10 16 0.00 0.00
4:15 am 04:15 Clear 19 -7 16 -9 86 86 SE 3 6 30.62 1037 10 16 0.00 0.00
4:35 am 04:35 Clear 19 -7 16 -9 86 86 SSE 6 9 30.59 1036 10 16 0.00 0.00
4:55 am 04:55 Clear 18 -8 14 -10 86 86 S 6 9 30.62 1037 10 16 0.00 0.00
5:15 am 05:15 Clear 19 -7 16 -9 86 86 SSE 6 9 30.59 1036 10 16 0.00 0.00
5:35 am 05:35 Clear 19 -7 16 -9 86 86 SSE 7 11 30.59 1036 10 16 0.00 0.00
5:55 am 05:55 Clear 19 -7 16 -9 86 86 SSE 8 13 30.59 1036 10 16 0.00 0.00
6:15 am 06:15 Clear 19 -7 16 -9 86 86 SSE 6 9 30.59 1036 10 16 0.00 0.00
6:35 am 06:35 Clear 19 -7 16 -9 86 86 SSE 9 15 30.59 1036 10 16 0.00 0.00
6:55 am 06:55 Clear 19 -7 16 -9 86 86 S 8 13 30.59 1036 10 16 0.00 0.00
7:15 am 07:15 Clear 19 -7 18 -8 93 93 S 7 11 30.56 1035 9 14 0.00 0.00
7:35 am 07:35 Clear 19 -7 16 -9 86 86 S 3 6 30.59 1036 9 14 0.00 0.00
7:55 am 07:55 Sunny 19 -7 18 -8 93 93 SSE 3 6 30.56 1035 7 11 0.00 0.00
8:15 am 08:15 Sunny 19 -7 18 -8 93 93 SSE 5 7 30.56 1035 8 13 0.00 0.00
8:35 am 08:35 Sunny 21 -6 18 -8 86 86 SSE 3 6 30.56 1035 9 14 0.00 0.00
8:55 am 08:55 Sunny 25 -4 21 -6 86 86 S 9 15 30.53 1034 10 16 0.00 0.00
9:15 am 09:15 Sunny 27 -3 21 -6 80 80 S 13 20 30.53 1034 10 16 0.00 0.00
9:35 am 09:35 Sunny 27 -3 23 -5 86 86 S 10 17 30.53 1034 10 16 0.00 0.00
9:55 am 09:55 Sunny 28 -2 25 -4 86 86 S 10 17 30.53 1034 10 16 0.00 0.00
10:15 am 10:15 Sunny 30 -1 25 -4 80 80 S 13 20 30.50 1033 10 16 0.00 0.00
10:35 am 10:35 Sunny 30 -1 25 -4 80 80 S 14 22 30.48 1032 10 16 0.00 0.00
10:55 am 10:55 Sunny 34 1 27 -3 75 75 S 13 20 30.48 1032 10 16 0.00 0.00
11:15 am 11:15 Sunny 36 2 27 -3 70 70 S 13 20 30.45 1031 10 16 0.00 0.00
11:35 am 11:35 Sunny 37 3 27 -3 65 65 S 13 20 30.42 1030 10 16 0.00 0.00
11:55 am 11:55 Sunny 39 4 27 -3 61 61 S 14 22 30.42 1030 10 16 0.00 0.00
12:15 pm 12:15 Sunny 39 4 27 -3 61 61 SSW 18 30 30.42 1030 10 16 0.00 0.00
12:35 pm 12:35 Sunny 41 5 25 -4 53 53 S 14 22 30.36 1028 10 16 0.00 0.00
12:55 pm 12:55 Sunny 43 6 25 -4 49 49 SSW 21 33 30.36 1028 10 16 0.00 0.00
1:15 pm 13:15 Sunny 45 7 25 -4 46 46 SSW 21 33 30.33 1027 10 16 0.00 0.00
1:35 pm 13:35 Mostly Cloudy 45 7 25 -4 46 46 S 23 37 30.33 1027 10 16 0.00 0.00
1:55 pm 13:55 Cloudy 45 7 25 -4 46 46 SSW 18 30 30.33 1027 10 16 0.00 0.00
2:15 pm 14:15 Cloudy 45 7 25 -4 46 46 S 17 28 30.33 1027 10 16 0.00 0.00
2:35 pm 14:35 Mostly Cloudy 45 7 25 -4 46 46 S 17 28 30.33 1027 10 16 0.00 0.00
2:55 pm 14:55 Cloudy 45 7 25 -4 46 46 S 18 30 30.33 1027 10 16 0.00 0.00
3:15 pm 15:15 Mostly Cloudy 45 7 25 -4 46 46 S 18 30 30.33 1027 10 16 0.00 0.00
3:35 pm 15:35 Sunny 45 7 25 -4 46 46 S 15 24 30.27 1025 10 16 0.00 0.00
3:55 pm 15:55 Mostly Cloudy 45 7 25 -4 46 46 S 17 28 30.27 1025 10 16 0.00 0.00
4:15 pm 16:15 Mostly Cloudy 45 7 25 -4 46 46 S 18 30 30.27 1025 10 16 0.00 0.00
4:35 pm 16:35 Mostly Cloudy 43 6 25 -4 49 49 S 14 22 30.30 1026 10 16 0.00 0.00
4:55 pm 16:55 Partly Cloudy 43 6 25 -4 49 49 S 17 28 30.30 1026 10 16 0.00 0.00
5:15 pm 17:15 Mostly Sunny 43 6 25 -4 49 49 S 15 24 30.30 1026 10 16 0.00 0.00
5:35 pm 17:35 Mostly Cloudy 43 6 25 -4 49 49 S 15 24 30.30 1026 10 16 0.00 0.00
5:55 pm 17:55 Cloudy 41 5 25 -4 53 53 S 13 20 30.30 1026 10 16 0.00 0.00
6:15 pm 18:15 Cloudy 41 5 25 -4 53 53 S 14 22 30.30 1026 10 16 0.00 0.00
6:35 pm 18:35 Cloudy 41 5 25 -4 53 53 S 14 22 30.30 1026 10 16 0.00 0.00
6:55 pm 18:55 Cloudy 41 5 25 -4 53 53 S 16 26 30.27 1025 10 16 0.00 0.00
7:15 pm 19:15 Cloudy 41 5 25 -4 53 53 S 13 20 30.27 1025 10 16 0.00 0.00
7:35 pm 19:35 Cloudy 41 5 25 -4 53 53 SSW 16 26 30.27 1025 10 16 0.00 0.00
7:55 pm 19:55 Cloudy 41 5 25 -4 53 53 S 15 24 30.27 1025 10 16 0.00 0.00
8:15 pm 20:15 Cloudy 41 5 27 -3 57 57 SSW 14 22 30.27 1025 10 16 0.00 0.00
8:35 pm 20:35 Cloudy 39 4 28 -2 65 65 S 16 26 30.27 1025 10 16 0.00 0.00
8:55 pm 20:55 Cloudy 39 4 30 -1 70 70 S 18 30 30.27 1025 10 16 0.00 0.00
9:15 pm 21:15 Cloudy 39 4 30 -1 70 70 SSW 22 35 30.27 1025 10 16 0.00 0.00
9:35 pm 21:35 Cloudy 37 3 30 -1 75 75 SSW 18 30 30.30 1026 10 16 0.00 0.00
9:55 pm 21:55 Cloudy 37 3 30 -1 75 75 SSW 15 24 30.30 1026 10 16 0.00 0.00
10:15 pm 22:15 Cloudy 37 3 30 -1 75 75 SSW 16 26 30.30 1026 10 16 0.00 0.00
10:35 pm 22:35 Cloudy 37 3 30 -1 75 75 SSW 13 20 30.30 1026 10 16 0.00 0.00
10:55 pm 22:55 Cloudy 36 2 30 -1 81 81 S 14 22 30.30 1026 10 16 0.00 0.00
11:15 pm 23:15 Cloudy 36 2 30 -1 81 81 S 13 20 30.30 1026 10 16 0.00 0.00
11:35 pm 23:35 Mostly Cloudy 36 2 30 -1 81 81 S 13 20 30.30 1026 10 16 0.00 0.00
11:55 pm 23:55 Cloudy 36 2 30 -1 81 81 SSW 12 19 30.30 1026 10 16 0.00 0.00

Powered by AerisWeather